GW4757 Weather Reports


time (UTC)temp
C
wind
direction
speed
KPH
gust
KPH
rain 1hr
cm
rain 24hr
cm
rain mn
cm
humidity
%
barometer
mb
20260504193050 26 67 0.0 19.3 0.00 0.00 0.00 34 1014.1
20260504191557 26 0 3.2 16.1 0.00 0.00 0.00 35 1014.4
20260504190053 26 137 9.7 19.3 0.00 0.00 0.00 34 1014.5
20260504184549 26 136 1.6 11.3 0.00 0.00 0.00 38 1014.8
20260504183053 25 140 8.0 22.5 0.00 0.00 0.00 35 1015.0
20260504181547 25 134 1.6 16.1 0.00 0.00 0.00 36 1015.1
20260504180105 26 122 0.0 4.8 0.00 0.00 0.00 34 1015.2
20260504174549 26 273 3.2 14.5 0.00 0.00 0.00 35 1015.4
20260504173106 25 211 4.8 22.5 0.00 0.00 0.00 38 1015.3
20260504171559 25 250 0.0 11.3 0.00 0.00 0.00 37 1015.3
20260504081548 4 0 0.0 0.0 0.00 0.00 0.00 90 1016.4
20260504044551 6 0 0.0 1.6 0.00 0.00 0.00 83 1016.8
20260504043055 6 0 0.0 0.0 0.00 0.00 0.00 82 1016.8
20260504041547 7 0 0.0 0.0 0.00 0.00 0.00 80 1016.7
20260504040049 7 0 0.0 1.6 0.00 0.00 0.00 79 1016.4
20260504034555 7 0 0.0 0.0 0.00 0.00 0.00 79 1016.5
20260504033048 7 0 0.0 0.0 0.00 0.00 0.00 78 1016.7
20260504031546 8 0 0.0 0.0 0.00 0.00 0.00 77 1016.8
20260504030051 8 0 0.0 0.0 0.00 0.00 0.00 75 1016.9
20260504024551 8 0 0.0 0.0 0.00 0.00 0.00 74 1016.8
20260504023057 8 0 0.0 0.0 0.00 0.00 0.00 73 1016.9
20260504021546 9 0 0.0 0.0 0.00 0.00 0.00 71 1016.7
20260504020056 10 0 0.0 0.0 0.00 0.00 0.00 69 1016.5
20260504014602 10 0 0.0 0.0 0.00 0.00 0.00 67 1016.1
20260504013108 11 0 0.0 0.0 0.00 0.00 0.00 64 1015.8
20260504011549 12 0 0.0 0.0 0.00 0.00 0.00 60 1015.8
20260504010052 13 0 0.0 0.0 0.00 0.00 0.00 56 1015.6
20260504004551 14 0 0.0 0.0 0.00 0.00 0.00 53 1015.5
20260504003047 15 0 0.0 0.0 0.00 0.00 0.00 47 1015.4
20260504001550 15 0 0.0 0.0 0.00 0.00 0.00 45 1015.2
20260504000050 15 0 0.0 0.0 0.00 0.00 0.00 43 1015.2
20260503234549 16 0 0.0 0.0 0.00 0.00 0.00 42 1015.2
20260503233045 17 0 0.0 4.8 0.00 0.00 0.00 38 1015.0
20260503231546 17 0 0.0 1.6 0.00 0.00 0.00 38 1015.0
20260503230052 18 133 0.0 11.3 0.00 0.00 0.00 35 1015.0
20260503224542 18 0 0.0 3.2 0.00 0.00 0.00 32 1015.0
20260503223051 18 200 1.6 6.4 0.00 0.00 0.00 31 1015.1
20260503221604 18 134 1.6 8.0 0.00 0.00 0.00 32 1015.2
20260503220051 19 80 0.0 3.2 0.00 0.00 0.00 30 1015.3
20260503214543 19 98 1.6 12.9 0.00 0.00 0.00 30 1015.5
20260503213048 20 118 1.6 9.7 0.00 0.00 0.00 31 1015.6
20260503211552 20 314 1.6 14.5 0.00 0.00 0.00 28 1015.9
20260503210049 21 0 0.0 11.3 0.00 0.00 0.00 28 1016.0
20260503204606 20 107 1.6 12.9 0.00 0.00 0.00 30 1016.2
20260503203049 19 150 8.0 24.1 0.00 0.00 0.00 31 1016.3
20260503201548 20 101 6.4 19.3 0.00 0.00 0.00 29 1016.4
20260503200047 20 69 4.8 11.3 0.00 0.00 0.00 30 1016.7
20260503194548 20 269 3.2 17.7 0.00 0.00 0.00 31 1016.7